Home > Weather > Napa > Past weeks

Flag for USA Past Weather in Napa, California, USA — Yesterday and Last 2 Weeks

Now
59 °F

Clear.


Feels Like: 58 °F
Forecast: 53 / 84 °F
Wind: 6 mph from Southeast

Location: Napa County Airport

Current Time: May 28, 2016 at 1:13:47 AM

Latest Report: May 27, 2016 at 11:54 PM


Visibility: 10 mi

Pressure: 29.80 "Hg

Humidity: 84%

Dew Point: 54 °F

Location of NapaLocation

Past Weather in Napa — Graph

°F

Napa Temperature Yesterday

Maximum temperature yesterday: 81 °F (at 2:54 PM)
Minimum temperature yesterday: 51 °F (at 4:54 AM)
Average temperature yesterday: 65 °F

High & Low Weather Summary for the Past Weeks

 TemperatureHumidityPressure
High90 °F (May 17, 2:54 PM)100% (May 15, 4:54 AM)30.09 "Hg (May 15, 4:54 AM)
Low41 °F (May 22, 4:54 AM)20% (May 17, 2:54 PM)29.67 "Hg (May 20, 12:54 AM)
Average60 °F73%29.93 "Hg
* Reported May 12 10:54 PM — May 27 10:54 PM, Napa, Weather by CustomWeather, © 2016

Note: Actual official high and low records may vary slightly from our data, if they occured in-between our weather recording intervals... More about our weather records

Advertising

Napa Weather History for the Previous 24 Hours

Scroll right to see more
 ConditionsComfort  
Time TempWeatherWind HumidityBarometerVisibility
10:54 PM
Fri, May 27
63 °FClear.7 mph75%29.81 "Hg10 mi
9:54 PM63 °FClear.5 mph70%29.81 "Hg10 mi
8:54 PM66 °FSunny.6 mph61%29.80 "Hg10 mi
7:54 PM69 °FSunny.7 mph61%29.79 "Hg10 mi
6:54 PM74 °FSunny.8 mph53%29.79 "Hg10 mi
5:54 PM76 °FSunny.12 mph52%29.80 "Hg10 mi
4:54 PM79 °FSunny.13 mph50%29.81 "Hg10 mi
3:54 PM81 °FSunny.15 mph45%29.82 "Hg10 mi
2:54 PM81 °FSunny.12 mph42%29.84 "Hg10 mi
1:54 PM79 °FSunny.8 mph45%29.87 "Hg10 mi
12:54 PM73 °FSunny.7 mph50%29.90 "Hg10 mi
11:54 AM70 °FSunny.7 mph55%29.92 "Hg10 mi
10:54 AM66 °FSunny.7 mph61%29.93 "Hg10 mi
9:54 AM61 °FSunny.7 mph72%29.94 "Hg10 mi
8:54 AM59 °FPassing clouds.No wind81%29.95 "Hg10 mi
7:54 AM57 °FScattered clouds.No wind83%29.93 "Hg10 mi
6:54 AM54 °FMostly cloudy.3 mph90%29.93 "Hg9 mi
5:54 AM51 °FOvercast.No wind92%29.93 "Hg8 mi
4:54 AM51 °FMostly cloudy.3 mph92%29.92 "Hg8 mi
3:54 AM53 °FMostly cloudy.3 mph93%29.92 "Hg9 mi
2:54 AM54 °FOvercast.12 mph90%29.93 "Hg9 mi
1:54 AM54 °FMostly cloudy.13 mph90%29.94 "Hg10 mi
Weather by CustomWeather, © 2016

See weather overviewHow to use our weather pages